[[{"header":{"parameterUnit":"m.s-1","parameterCategory":1,"la1":30.2991,"la2":30.254,"lo1":-89.0895,"lo2":-89.0444,"dy":0.0017,"dx":0.0017,"nx":28,"ny":28,"refTime":"2025-05-18T03:00:00:Z","depth":0,"parameterNumber":2,"parameterNumberName":"U-component_of_WINDS"},"data":[0,0,0,0,0,0,0,0,0,0,0,0,0,0,0,0,0,0,0,0,0,0,0,0,0,0,0,0,0,0,0,0,0,0,0,0,0,0,0,0,0,0,0,0,0,0,0,0,0,0,0,0,0,0,0,0,0,0,-1.9518,-1.9519,0,-1.9544,-1.9545,-1.9545,-1.9539,-1.9539,-1.9538,-1.9538,-1.9566,-1.9567,-1.9568,0,0,0,0,0,0,0,0,0,0,0,0,0,-1.9465,-1.9466,-1.9518,-1.9519,-1.9519,-1.9544,-1.9545,-1.9545,-1.9539,-1.9539,-1.9538,-1.9538,-1.9565,-1.9567,-1.9568,0,0,0,0,0,0,0,0,0,0,0,0,0,-1.949,-1.9467,-1.9518,-1.9519,-1.9519,-1.9544,-1.9545,-1.9545,-1.9539,-1.9539,-1.9538,-1.9537,-1.9565,-1.9567,-1.9569,-1.9594,0,0,-1.9574,-1.9575,0,0,0,0,0,0,0,0,-1.9488,-1.9492,-1.9519,-1.9519,-1.952,-1.9538,-1.9536,-1.9562,-1.954,-1.9532,-1.9538,-1.9537,-1.9557,-1.956,-1.9566,-1.9596,-1.9597,-1.9574,-1.9575,-1.9576,-1.9577,0,0,0,0,0,0,0,-1.9487,-1.949,-1.9529,-1.9519,-1.952,-1.9519,-1.9521,-1.9541,-1.9548,-1.9533,-1.9532,-1.9535,-1.9557,-1.9564,-1.9567,-1.9597,-1.9574,-1.9576,-1.9577,-1.9578,-1.965,-1.965,0,0,0,0,0,0,-1.9484,-1.9489,-1.9528,-1.9529,-1.9502,-1.952,-1.9523,-1.9533,-1.9548,-1.955,-1.9536,-1.9535,-1.9562,-1.9565,-1.9568,-1.9599,-1.9576,-1.9578,-1.9579,-1.9649,-1.965,-1.9651,0,0,0,0,0,0,-1.9483,-1.9488,-1.9527,-1.9509,-1.9514,-1.9522,-1.9533,-1.9534,-1.9541,-1.9551,-1.9552,-1.9542,-1.9561,-1.9565,-1.9588,-1.96,-1.9579,-1.958,-1.9648,-1.9649,-1.965,-1.9661,0,0,0,0,0,0,-1.9482,-1.9487,-1.9497,-1.9509,-1.9515,-1.9546,-1.9533,-1.9535,-1.9544,-1.9543,-1.9556,-1.9558,-1.9561,-1.9585,-1.959,-1.9602,-1.9582,-1.9647,-1.9648,-1.965,-1.966,-1.9663,-1.9665,0,0,0,0,0,-1.948,-1.9499,-1.9497,-1.9502,-1.9527,-1.9547,-1.955,-1.9552,-1.9545,-1.9554,-1.9561,-1.9558,-1.9598,-1.9587,-1.9592,-1.9605,-1.9646,-1.9648,-1.965,-1.9659,-1.9662,-1.9665,0,0,0,0,0,0,-1.9489,-1.9501,-1.9499,-1.9523,-1.9534,-1.9545,-1.9558,-1.9556,-1.9569,-1.9568,-1.9571,-1.9574,-1.9597,-1.9604,-1.9592,-1.9631,-1.9621,-1.9624,-1.9626,-1.9629,-1.9632,-1.963,-1.9583,0,0,0,0,0,-1.9493,-1.9507,-1.9518,-1.9538,-1.9544,-1.955,-1.9559,-1.956,-1.9571,-1.9576,-1.9584,-1.9595,-1.9611,-1.9621,-1.9635,-1.9661,-1.9664,-1.9673,-1.9675,-1.9677,-1.968,-1.9694,-1.9698,-1.9657,-1.9657,-1.9657,0,0,-1.9503,-1.9512,-1.9521,-1.954,-1.9548,-1.9564,-1.9554,-1.957,-1.9582,-1.9578,-1.96,-1.9606,-1.962,-1.9644,-1.9655,-1.965,-1.9692,-1.968,-1.9681,-1.9683,-1.9696,-1.97,-1.9704,-1.9658,-1.9658,-1.9658,0,0,-1.9529,-1.9537,-1.9554,-1.9563,-1.9575,-1.958,-1.9584,-1.9596,-1.96,-1.9622,-1.9619,-1.9634,-1.966,-1.9669,-1.9677,-1.9707,-1.9704,-1.9712,-1.9725,-1.9739,-1.9743,-1.9745,-1.9756,-1.9759,-1.9714,-1.9714,-1.9714,0,-1.9539,-1.9561,-1.9564,-1.958,-1.9589,-1.9586,-1.9604,-1.9613,-1.963,-1.9636,-1.963,-1.9663,-1.9672,-1.9698,-1.9706,-1.9713,-1.9718,-1.971,-1.9742,-1.9745,-1.9747,-1.9757,-1.9761,-1.9715,-1.9715,-1.9715,-1.9715,0,-1.9574,-1.959,-1.9602,-1.9618,-1.9629,-1.9646,-1.9651,-1.9661,-1.9662,-1.9667,-1.9689,-1.9699,-1.9716,-1.9723,-1.9723,-1.9749,-1.9746,-1.9741,-1.973,-1.9752,-1.9761,-1.9765,-1.9716,-1.9716,-1.9716,-1.9715,0,0,-1.9605,-1.9622,-1.9627,-1.9634,-1.9648,-1.966,-1.9678,-1.9693,-1.9702,-1.9714,-1.9729,-1.9752,-1.9747,-1.9757,-1.9758,-1.9771,-1.9793,-1.9764,-1.9765,-1.9769,-1.9822,-1.9825,-1.9829,-1.9792,-1.9793,-1.9793,-1.9821,0,-1.9632,-1.9662,-1.9664,-1.9691,-1.9706,-1.9704,-1.9719,-1.9729,-1.9735,-1.9748,-1.9754,-1.977,-1.9763,-1.9769,-1.9781,-1.9788,-1.9804,-1.9786,-1.9806,-1.9806,-1.9802,-1.9834,-1.9838,-1.9863,-1.9824,-1.9825,-1.9826,0,-1.9667,-1.9679,-1.9707,-1.9719,-1.9725,-1.9739,-1.9753,-1.9766,-1.9778,-1.9781,-1.9792,-1.9792,-1.9811,-1.98,-1.9826,-1.9813,-1.9822,-1.9827,-1.9828,-1.9829,-1.9817,-1.9836,-1.9871,-1.9875,-1.9831,-1.9831,-1.983,0,-1.9686,-1.971,-1.973,-1.9736,-1.9751,-1.976,-1.9767,-1.9778,-1.9787,-1.9801,-1.9807,-1.9822,-1.983,-1.9843,-1.9847,-1.9839,-1.9873,-1.9862,-1.9876,-1.9876,-1.9882,-1.9882,-1.9919,-1.9889,-1.9889,-1.9889,-1.9889,0,-1.9715,-1.9732,-1.9739,-1.9751,-1.977,-1.9774,-1.9793,-1.9799,-1.9809,-1.9823,-1.9823,-1.9836,-1.9841,-1.9856,-1.986,-1.988,-1.9884,-1.9887,-1.9888,-1.9887,-1.9886,-1.9892,-1.989,-1.989,-1.9889,-1.9889,-1.9889,0,-1.974,-1.9745,-1.9766,-1.9778,-1.9781,-1.9795,-1.9806,-1.9818,-1.9823,-1.984,-1.9845,-1.9853,-1.987,-1.9876,-1.9896,-1.9899,-1.9922,-1.9922,-1.9918,-1.9918,-1.9931,-1.9929,-1.9972,-1.9978,-1.9945,-1.9945,-1.9945,0,-1.9758,-1.9771,-1.9784,-1.9793,-1.9799,-1.9814,-1.9823,-1.9827,-1.9837,-1.9852,-1.9862,-1.9878,-1.9892,-1.9918,-1.9927,-1.9942,-1.9942,-1.9956,-1.9944,-1.9943,-1.9942,-1.994,-1.9942,-1.9958,-1.9958,-1.9959,-1.9959,0,-1.9789,-1.9791,-1.9804,-1.9818,-1.9829,-1.984,-1.9851,-1.9859,-1.9864,-1.9876,-1.9892,-1.9902,-1.9923,-1.9939,-1.9955,-1.9963,-1.9962,-1.9962,-1.9966,-1.9965,-1.9962,-1.9963,-1.9923,-1.9961,-1.9961,-1.9961,-1.9961,-1.9961,-1.9811,-1.9822,-1.9833,-1.9848,-1.9856,-1.9866,-1.9878,-1.9885,-1.9898,-1.9915,-1.9917,-1.9934,-1.9947,-1.9968,-1.9976,-1.999,-1.9987,-1.9992,-1.9994,-1.9995,-1.9995,-1.996,-1.9993,-1.9993,-1.9993,-1.9993,-1.9993,0,-1.9842,-1.9848,-1.9862,-1.9877,-1.9888,-1.9886,-1.9898,-1.9908,-1.9924,-1.9935,-1.9947,-1.9967,-1.9982,-1.9992,-2.0008,-2.0018,-2.0018,-2.0022,-2.0021,-2.0022,-1.9998,-1.9993,-2.0021,-2.0021,-2.0021,-2.0021,-2.0021,-2.0021,-1.9859,-1.9878,-1.9881,-1.9905,-1.9912,-1.9928,-1.9935,-1.9945,-1.9954,-1.9975,-1.9988,-1.9994,-2.0004,-2.0021,-2.0035,-2.0038,-2.0044,-2.0048,-2.005,-2.0027,-2.0024,-2.0021,-2.0016,-2.0049,-2.0049,-2.0073,-2.0073,-2.0073]},{"header":{"parameterUnit":"m.s-1","parameterCategory":1,"la1":30.2991,"la2":30.254,"lo1":-89.0895,"lo2":-89.0444,"dy":0.0017,"dx":0.0017,"nx":28,"ny":28,"refTime":"2025-05-18T03:00:00:Z","depth":0,"parameterNumber":3,"parameterNumberName":"V-component_of_WINDS"},"data":[0,0,0,0,0,0,0,0,0,0,0,0,0,0,0,0,0,0,0,0,0,0,0,0,0,0,0,0,0,0,0,0,0,0,0,0,0,0,0,0,0,0,0,0,0,0,0,0,0,0,0,0,0,0,0,0,0,0,5.1045,5.1045,0,5.1055,5.1055,5.1055,5.0981,5.0979,5.0977,5.0975,5.0983,5.0985,5.0987,0,0,0,0,0,0,0,0,0,0,0,0,0,5.0962,5.0964,5.1045,5.1045,5.1046,5.1055,5.1055,5.1055,5.0981,5.0979,5.0976,5.0974,5.0982,5.0985,5.0987,0,0,0,0,0,0,0,0,0,0,0,0,0,5.0987,5.0964,5.1045,5.101,5.1007,5.1055,5.1055,5.1055,5.0982,5.0979,5.0976,5.0973,5.0981,5.0985,5.0988,5.1069,0,0,5.0998,5.0999,0,0,0,0,0,0,0,0,5.0986,5.099,5.1015,5.1013,5.1009,5.1014,5.1028,5.106,5.0983,5.0991,5.0975,5.0971,5.0996,5.0997,5.1006,5.107,5.107,5.0998,5.1,5.1001,5.1002,0,0,0,0,0,0,0,5.0984,5.099,5.1049,5.1016,5.1012,5.0993,5.0993,5.1034,5.1011,5.099,5.0985,5.0987,5.0993,5.1003,5.1006,5.107,5.0998,5.1001,5.1003,5.1004,5.1201,5.1205,0,0,0,0,0,0,5.0988,5.0989,5.1049,5.1049,5.099,5.0997,5.0997,5.1015,5.101,5.1006,5.099,5.0984,5.0999,5.1002,5.1006,5.1101,5.1001,5.1004,5.1006,5.1198,5.1202,5.1206,0,0,0,0,0,0,5.0986,5.0994,5.1048,5.1018,5.1023,5.1002,5.1023,5.1017,5.1027,5.101,5.1005,5.1004,5.0997,5.1001,5.1054,5.11,5.1006,5.1008,5.1194,5.1199,5.1204,5.1292,0,0,0,0,0,0,5.0984,5.0994,5.1025,5.1019,5.1025,5.1098,5.1025,5.102,5.1033,5.1025,5.1022,5.1018,5.0995,5.105,5.1057,5.1103,5.1011,5.119,5.1196,5.1202,5.1285,5.1299,5.1312,0,0,0,0,0,5.0981,5.1049,5.1027,5.1034,5.1064,5.11,5.1104,5.1076,5.1037,5.1067,5.1057,5.1018,5.1094,5.1056,5.1064,5.1111,5.1187,5.1195,5.1202,5.1279,5.1296,5.1311,0,0,0,0,0,0,5.106,5.1047,5.1023,5.109,5.1097,5.1088,5.1126,5.1095,5.1113,5.1104,5.1068,5.1068,5.1127,5.1124,5.1082,5.1189,5.1133,5.1143,5.1189,5.1206,5.1219,5.1218,5.1014,0,0,0,0,0,5.1085,5.1117,5.1104,5.1165,5.1169,5.1147,5.1162,5.114,5.1145,5.1147,5.114,5.1146,5.1171,5.1188,5.121,5.1284,5.1282,5.132,5.1334,5.1345,5.1353,5.1392,5.1409,5.123,5.123,5.123,0,0,5.1138,5.1135,5.1156,5.118,5.1183,5.1216,5.115,5.1187,5.1211,5.1153,5.1203,5.1198,5.1202,5.1266,5.1294,5.1265,5.1402,5.1354,5.1363,5.1366,5.1402,5.1418,5.1434,5.1235,5.1235,5.1234,0,0,5.125,5.1251,5.1302,5.1306,5.1311,5.1296,5.1308,5.1304,5.1298,5.1348,5.1305,5.1332,5.1376,5.1381,5.1389,5.1504,5.147,5.1512,5.1582,5.1621,5.1635,5.1647,5.1688,5.1703,5.1521,5.1521,5.1521,0,5.1314,5.1362,5.1332,5.1372,5.1384,5.1333,5.1384,5.139,5.1401,5.141,5.1378,5.1433,5.1432,5.1496,5.1524,5.1533,5.1545,5.1512,5.1635,5.1647,5.1658,5.1697,5.1712,5.1526,5.1526,5.1525,5.1525,0,5.1441,5.1475,5.1516,5.1529,5.1545,5.1591,5.1567,5.1587,5.1563,5.1552,5.1603,5.16,5.1621,5.1635,5.1612,5.1696,5.1678,5.1642,5.1584,5.1681,5.1716,5.1731,5.1534,5.1532,5.153,5.1529,0,0,5.1603,5.1599,5.1614,5.162,5.1622,5.1647,5.1691,5.1711,5.1729,5.1739,5.1774,5.1813,5.1779,5.1788,5.1766,5.1799,5.189,5.1758,5.1758,5.1783,5.1983,5.201,5.2028,5.1868,5.187,5.1872,5.1982,0,5.1712,5.1786,5.176,5.1836,5.1867,5.1819,5.1857,5.1862,5.1852,5.1877,5.1865,5.1893,5.1847,5.1852,5.1883,5.1873,5.193,5.1864,5.1899,5.1901,5.19,5.2046,5.2075,5.2179,5.1996,5.1998,5.2,0,5.185,5.1866,5.1945,5.1942,5.1954,5.1988,5.2005,5.2029,5.2034,5.2024,5.2035,5.2006,5.2047,5.1991,5.2048,5.2004,5.2017,5.2014,5.2017,5.2019,5.1956,5.2052,5.2212,5.2227,5.2021,5.202,5.2018,0,5.196,5.2001,5.2054,5.206,5.2057,5.2083,5.2083,5.2084,5.2099,5.2113,5.2122,5.2142,5.2152,5.2168,5.2144,5.2105,5.2204,5.2146,5.2197,5.2198,5.222,5.2219,5.2384,5.2229,5.2229,5.2228,5.2228,0,5.2085,5.2135,5.2103,5.2136,5.219,5.2159,5.2214,5.2209,5.2211,5.2241,5.2201,5.223,5.2196,5.2222,5.2204,5.2254,5.2259,5.2252,5.2246,5.2256,5.2256,5.2263,5.2255,5.2232,5.2231,5.2231,5.223,0,5.2217,5.2198,5.2252,5.2245,5.2245,5.2285,5.2279,5.2309,5.2296,5.2335,5.2342,5.2323,5.2351,5.2329,5.2356,5.2344,5.241,5.2394,5.2409,5.2404,5.2457,5.2452,5.2632,5.2654,5.2485,5.2487,5.2488,0,5.2298,5.2335,5.2333,5.2351,5.2353,5.2382,5.2397,5.2368,5.2384,5.2393,5.2421,5.2446,5.2464,5.2512,5.25,5.2521,5.2505,5.2567,5.2508,5.2516,5.2506,5.2504,5.2508,5.2579,5.2581,5.2582,5.2583,0,5.2443,5.2432,5.2455,5.2475,5.2493,5.2507,5.2518,5.2535,5.2505,5.2526,5.2555,5.2569,5.2598,5.2623,5.264,5.2639,5.2607,5.2602,5.2615,5.2625,5.2632,5.2628,5.2441,5.2598,5.2597,5.2595,5.2595,5.2594,5.2552,5.2583,5.2587,5.2614,5.2619,5.263,5.2657,5.2648,5.2672,5.2693,5.2675,5.2709,5.2713,5.2732,5.2735,5.2762,5.2736,5.2755,5.276,5.2765,5.2773,5.2628,5.2765,5.2764,5.2764,5.2763,5.2763,0,5.2696,5.2696,5.2721,5.2737,5.2758,5.2726,5.2737,5.2756,5.2787,5.2794,5.2813,5.2846,5.287,5.286,5.2882,5.2905,5.289,5.2911,5.2909,5.291,5.2794,5.2781,5.2923,5.2923,5.2922,5.2922,5.2922,5.2922,5.2773,5.2824,5.2813,5.2867,5.2866,5.29,5.2908,5.2918,5.2923,5.2962,5.2982,5.2976,5.2975,5.2996,5.3017,5.3014,5.3023,5.305,5.3041,5.2933,5.2918,5.2903,5.289,5.3052,5.3052,5.3154,5.3155,5.3156]}]]